DECAYED
Showing default

ASTROCAST-0205, 48960 (Decayed)

Orbit data source: Space-Track

ASTROCAST-0205, 48960 was a payload satellite owned by Astrocast (CH) in LEO that was launched on Wed, 30 Jun 2021 UTC via an FALCON 9 launch vehicle from the Air Force Eastern Test Range (AFETR). Payload-class satellites include a variety of spacecraft equipped with specific instruments for various scientific and technological missions. These include communications satellites like Starlink; space stations such as the ISS; scientific satellites like the Hubble; Earth observation satellites from companies like Planet Labs, Umbra, and HawkEye 360; GPS; miniature CubeSats for education and research; and military/defense satellites.

Not visible in the next 10 days
Identifier
48960, 2021-059CK
Orbit
Decayed
Country
Flag of CHCH / SWTZ
Related business
Manufacturer
Astrocast
Mission
Decayed Commercial Communications
Bus & Motor
CUBESAT 3U, Unknown motor
Mass
5 kg wet, 5 kg dry
Launch date (UTC)
2021-06-30 (5 years ago)
Launch vehicle
FALCON 9
Launch site
Air Force Eastern Test Range (AFETR)
Object type
Payload
Rocket body
Debris
Shape & HBR
Box, 0.1 m
Radar Cross Section
0.035 m², Medium (>0.1 m² and < 1m²)

Expand to show TLE details & history
Last TLE update: 5 months ago

TLE from 5 months ago
0 ASTROCAST-0205
1 48960U 21059CK  26005.89273276  .08342644  26604-5  11122-2 0  9994
2 48960  97.6066 199.1986 0009498 257.7127 102.3106 16.35412541253125
Epoch: 2026-01-05T21:25Z
TLE epoch observation values (Epoch: 2026-01-05T21:25:32.110Z)
Latitude
-0.00003°
Longitude
132.33144°
Altitude
182.607 km
Speed
7.796 km/s
True Right ascension
13h 16m 47s
True Declination
0° 00' 00"
Sunlit
Object was in daylight at epoch
Visualization orbit readout
Latitude
Unknown
Longitude
Unknown
Altitude
Unknown
Speed
Unknown
Apparent Right ascension
Unknown
Apparent Declination
Unknown
Sunlit
N/A
Visualization observer readout
Local Sidereal Time
23:23:28
Azimuth
Unknown
Elevation
Unknown
Doppler factor
Unknown
Orbital elements
Apogee altitude
181.081 km
Perigee altitude
168.633 km
Semi-major axis
6,552.994 km
Eccentricity
0.00095
Inclination
97.6066°
RAAN
199.1986°
Arg. of periapsis
257.7127°
True anomaly
102.41691°
Mean anomaly
102.3106°
Eccentric anomaly
102.36376°
Mean motion
4.09151 °/min
Orbital period
87.99 mins
BSTAR
0.0011122
Loading maneuver chart data...
Computing Atmospheric mass density...

Documentation

Showing up to 5 results
|